2024/06/14 00:00:00,0.0,20.8
2024/06/14 00:10:00,0.0,20.6
2024/06/14 00:20:00,0.0,20.6
2024/06/14 00:30:00,0.0,20.4
2024/06/14 00:40:00,0.0,20.2
2024/06/14 00:50:00,0.0,20.4
2024/06/14 01:00:00,0.0,20.3
2024/06/14 01:10:00,0.0,20.1
2024/06/14 01:20:00,0.0,20.3
2024/06/14 01:30:00,0.0,20.0
2024/06/14 01:40:00,0.0,20.1
2024/06/14 01:50:00,0.0,20.1
2024/06/14 02:00:00,0.0,19.9
2024/06/14 02:10:00,0.0,19.8
2024/06/14 02:20:00,0.0,19.7
2024/06/14 02:30:00,0.0,19.9
2024/06/14 02:40:00,0.0,19.6
2024/06/14 02:50:00,0.0,19.6
2024/06/14 03:00:00,0.0,19.4
2024/06/14 03:10:00,0.0,19.5
2024/06/14 03:20:00,0.0,19.4
2024/06/14 03:30:00,0.0,19.5
2024/06/14 03:40:00,0.0,19.5
2024/06/14 03:50:00,0.0,19.4
2024/06/14 04:00:00,0.0,19.7
2024/06/14 04:10:00,0.0,19.5
2024/06/14 04:20:00,0.0,19.4
2024/06/14 04:30:00,0.0,19.3
2024/06/14 04:40:00,0.0,19.5
2024/06/14 04:50:00,0.0,19.6
2024/06/14 05:00:00,0.0,19.4
2024/06/14 05:10:00,0.0,19.4
2024/06/14 05:20:00,0.0,19.5
2024/06/14 05:30:00,0.0,19.8
2024/06/14 05:40:00,0.0,20.1
2024/06/14 05:50:00,0.0,20.1
2024/06/14 06:00:00,0.0,20.3
2024/06/14 06:10:00,0.0,20.8
2024/06/14 06:20:00,0.0,21.5
2024/06/14 06:30:00,0.0,22.6
2024/06/14 06:40:00,0.0,22.5
2024/06/14 06:50:00,0.0,23.6
2024/06/14 07:00:00,0.0,23.7
2024/06/14 07:10:00,0.0,23.9
2024/06/14 07:20:00,0.0,23.9
2024/06/14 07:30:00,0.0,23.2
2024/06/14 07:40:00,0.0,23.2
2024/06/14 07:50:00,0.0,23.2
2024/06/14 08:00:00,,23.6
2024/06/14 08:10:00,0.0,25.7
2024/06/14 08:20:00,,25.3
2024/06/14 08:30:00,0.0,25.8
2024/06/14 08:40:00,0.0,26.1
2024/06/14 08:50:00,0.0,27.1
2024/06/14 09:00:00,,27.7
2024/06/14 09:10:00,,27.7
2024/06/14 09:20:00,,27.5
2024/06/14 09:30:00,,27.2
2024/06/14 09:40:00,,28.5
2024/06/14 09:50:00,,30.2
2024/06/14 10:00:00,,32.2
2024/06/14 10:10:00,,32.0
2024/06/14 10:20:00,,31.0
2024/06/14 10:30:00,,28.1
2024/06/14 10:40:00,,28.5
2024/06/14 10:50:00,,28.6
2024/06/14 11:00:00,,27.3
2024/06/14 11:10:00,0.0,25.4
2024/06/14 11:20:00,,25.9
2024/06/14 11:30:00,,26.5
2024/06/14 11:40:00,,26.5
2024/06/14 11:50:00,,26.4
2024/06/14 12:00:00,,26.4
2024/06/14 12:10:00,,26.3
2024/06/14 12:20:00,0.0,26.7
2024/06/14 12:30:00,,26.7
2024/06/14 12:40:00,,26.5
2024/06/14 12:50:00,,26.8
2024/06/14 13:00:00,,26.5
2024/06/14 13:10:00,,26.9
2024/06/14 13:20:00,0.0,26.6
2024/06/14 13:30:00,,27.3
2024/06/14 13:40:00,0.0,27.6
2024/06/14 13:50:00,0.0,27.5
2024/06/14 14:00:00,0.0,27.5
2024/06/14 14:10:00,0.0,27.8
2024/06/14 14:20:00,0.0,27.7
2024/06/14 14:30:00,0.0,28.1
2024/06/14 14:40:00,,28.6
2024/06/14 14:50:00,0.0,28.6
2024/06/14 15:00:00,,28.1
2024/06/14 15:10:00,,28.6
2024/06/14 15:20:00,,28.0
2024/06/14 15:30:00,,27.4
2024/06/14 15:40:00,,29.1
2024/06/14 15:50:00,,30.5
2024/06/14 16:00:00,,30.5
2024/06/14 16:10:00,,30.9
2024/06/14 16:20:00,,31.4
2024/06/14 16:30:00,,31.4
2024/06/14 16:40:00,0.0,31.0
2024/06/14 16:50:00,0.0,31.7
2024/06/14 17:00:00,0.0,30.4
2024/06/14 17:10:00,0.0,31.0
2024/06/14 17:20:00,0.0,30.7
2024/06/14 17:30:00,0.0,30.1
2024/06/14 17:40:00,0.0,31.1
2024/06/14 17:50:00,0.0,32.0
2024/06/14 18:00:00,0.0,31.3
2024/06/14 18:10:00,0.0,30.1
2024/06/14 18:20:00,0.0,29.0
2024/06/14 18:30:00,0.0,29.7
2024/06/14 18:40:00,0.0,29.2
2024/06/14 18:50:00,0.0,28.8
2024/06/14 19:00:00,0.0,27.8
2024/06/14 19:10:00,0.0,27.3
2024/06/14 19:20:00,0.0,26.6
2024/06/14 19:30:00,0.0,26.5
2024/06/14 19:40:00,0.0,26.2
2024/06/14 19:50:00,0.0,25.7
2024/06/14 20:00:00,0.0,25.6
2024/06/14 20:10:00,0.0,25.3
2024/06/14 20:20:00,0.0,25.2
2024/06/14 20:30:00,0.0,24.6
2024/06/14 20:40:00,0.0,24.2
2024/06/14 20:50:00,0.0,24.3
2024/06/14 21:00:00,0.0,24.1
2024/06/14 21:10:00,0.0,24.2
2024/06/14 21:20:00,0.0,23.9
2024/06/14 21:30:00,0.0,23.6
2024/06/14 21:40:00,0.0,23.5
2024/06/14 21:50:00,0.0,23.5
2024/06/14 22:00:00,0.0,23.9
2024/06/14 22:10:00,0.0,23.2
2024/06/14 22:20:00,0.0,23.7
2024/06/14 22:30:00,0.0,24.2
2024/06/14 22:40:00,0.0,23.4
2024/06/14 22:50:00,0.0,23.3
2024/06/14 23:00:00,0.0,23.0
2024/06/14 23:10:00,0.0,22.7
2024/06/14 23:20:00,0.0,23.0
2024/06/14 23:30:00,0.0,22.8
2024/06/14 23:40:00,0.0,22.9
2024/06/14 23:50:00,0.0,22.6
